When you browse on this site, cookies collect data to enhance your experience and personalize the content and advertising you see.
Visit our Privacy Policy to learn more. By continuing to use the site, you agree to this use of cookies and data.
  • en Suisse
  • Liste des pays
  • À 7 jours
  • Température de l'eau
  • Carte satellitaire
  • Carte météo
  • Widgets météo
  • user-avatar
    Se connecter

    Météo par heure à Tovchenykove

    Ce jour, 23 Juillet, Mardi

    Heure Température Précipitation Vent Pression Humidité
    00:00 +17°C° 0 mm 2 m/s 743 mmHg 97%
    01:00 +17°C° 0 mm 2 m/s 743 mmHg 97%
    02:00 +16°C° 0 mm 2 m/s 743 mmHg 97%
    03:00 +16°C° 0 mm 2 m/s 743 mmHg 97%
    04:00 +16°C° 0 mm 2 m/s 742 mmHg 97%
    05:00 +14°C° 0 mm 3 m/s 742 mmHg 96%
    06:00 +17°C° 0 mm 3 m/s 742 mmHg 93%
    07:00 +18°C° 0 mm 3 m/s 742 mmHg 89%
    08:00 +19°C° 0 mm 3 m/s 742 mmHg 85%
    09:00 +20°C° 0 mm 3 m/s 742 mmHg 81%
    10:00 +21°C° 0 mm 3 m/s 742 mmHg 76%
    11:00 +22°C° 0 mm 3 m/s 743 mmHg 71%
    12:00 +22°C° 0.3 mm 4 m/s 742 mmHg 72%
    13:00 +22°C° 0.3 mm 4 m/s 742 mmHg 73%
    14:00 +22°C° 0.3 mm 5 m/s 742 mmHg 73%
    15:00 +22°C° 0.1 mm 4 m/s 742 mmHg 74%
    16:00 +21°C° 0.1 mm 4 m/s 742 mmHg 75%
    17:00 +20°C° 0.1 mm 4 m/s 742 mmHg 77%
    18:00 +19°C° 0 mm 3 m/s 742 mmHg 80%
    19:00 +19°C° 0 mm 3 m/s 741 mmHg 83%
    20:00 +18°C° 0 mm 2 m/s 741 mmHg 86%
    21:00 +17°C° 0 mm 2 m/s 741 mmHg 87%
    22:00 +16°C° 0 mm 2 m/s 741 mmHg 88%
    23:00 +16°C° 0 mm 2 m/s 741 mmHg 90%

    Demain, 24 Juillet, Mercredi

    Heure Température Précipitation Vent Pression Humidité
    00:00 +15°C° 0 mm 2 m/s 741 mmHg 91%
    01:00 +14°C° 0 mm 2 m/s 741 mmHg 93%
    02:00 +13°C° 0 mm 1 m/s 740 mmHg 95%
    03:00 +14°C° 0 mm 1 m/s 740 mmHg 95%
    04:00 +14°C° 0 mm 1 m/s 740 mmHg 96%
    05:00 +14°C° 0 mm 1 m/s 740 mmHg 96%
    06:00 +15°C° 0 mm 1 m/s 740 mmHg 91%
    07:00 +18°C° 0 mm 1 m/s 740 mmHg 86%
    08:00 +19°C° 0 mm 1 m/s 740 mmHg 82%
    09:00 +20°C° 0.2 mm 1 m/s 740 mmHg 78%
    10:00 +21°C° 0.2 mm 1 m/s 740 mmHg 75%
    11:00 +22°C° 0.2 mm 1 m/s 740 mmHg 72%
    12:00 +22°C° 1 mm 1 m/s 740 mmHg 71%
    13:00 +23°C° 1 mm 1 m/s 740 mmHg 70%
    14:00 +23°C° 1 mm 2 m/s 740 mmHg 69%
    15:00 +23°C° 0.6 mm 2 m/s 740 mmHg 70%
    16:00 +23°C° 0.6 mm 2 m/s 740 mmHg 71%
    17:00 +23°C° 0.6 mm 2 m/s 740 mmHg 72%
    18:00 +20°C° 0.2 mm 2 m/s 740 mmHg 77%
    19:00 +20°C° 0.2 mm 1 m/s 740 mmHg 81%
    20:00 +18°C° 0.2 mm 1 m/s 740 mmHg 86%
    21:00 +18°C° 0 mm 1 m/s 740 mmHg 88%
    22:00 +16°C° 0 mm 2 m/s 740 mmHg 89%
    23:00 +16°C° 0 mm 2 m/s 741 mmHg 91%

    Après-demain, 25 Juillet, Jeudi

    Heure Température Précipitation Vent Pression Humidité
    00:00 +15°C° 0 mm 2 m/s 740 mmHg 92%
    01:00 +15°C° 0 mm 2 m/s 740 mmHg 93%
    02:00 +15°C° 0 mm 2 m/s 740 mmHg 94%
    03:00 +14°C° 0 mm 2 m/s 740 mmHg 95%
    04:00 +14°C° 0 mm 2 m/s 741 mmHg 96%
    05:00 +14°C° 0 mm 2 m/s 741 mmHg 97%
    06:00 +15°C° 0 mm 2 m/s 741 mmHg 94%
    07:00 +17°C° 0 mm 2 m/s 741 mmHg 90%
    08:00 +18°C° 0 mm 2 m/s 741 mmHg 87%
    09:00 +20°C° 1.2 mm 3 m/s 741 mmHg 82%
    10:00 +21°C° 1.2 mm 3 m/s 741 mmHg 77%
    11:00 +22°C° 1.2 mm 3 m/s 741 mmHg 73%
    12:00 +22°C° 1.9 mm 4 m/s 741 mmHg 73%
    13:00 +23°C° 1.9 mm 4 m/s 741 mmHg 73%
    14:00 +23°C° 1.9 mm 4 m/s 741 mmHg 72%
    15:00 +22°C° 0.5 mm 4 m/s 741 mmHg 74%
    16:00 +22°C° 0.5 mm 4 m/s 741 mmHg 76%
    17:00 +22°C° 0.5 mm 3 m/s 741 mmHg 78%
    18:00 +20°C° 0.4 mm 3 m/s 741 mmHg 82%
    19:00 +19°C° 0.4 mm 3 m/s 741 mmHg 86%
    20:00 +18°C° 0.4 mm 3 m/s 741 mmHg 90%
    21:00 +17°C° 0 mm 3 m/s 741 mmHg 91%
    22:00 +16°C° 0 mm 3 m/s 741 mmHg 92%
    23:00 +16°C° 0 mm 2 m/s 741 mmHg 93%

    26 Juillet, Vendredi

    Heure Température Précipitation Vent Pression Humidité
    00:00 +16°C° 0 mm 2 m/s 741 mmHg 93%
    01:00 +15°C° 0 mm 2 m/s 740 mmHg 94%
    02:00 +15°C° 0 mm 2 m/s 740 mmHg 94%
    03:00 +15°C° 0 mm 2 m/s 740 mmHg 94%
    04:00 +15°C° 0 mm 2 m/s 740 mmHg 95%
    05:00 +15°C° 0 mm 2 m/s 740 mmHg 95%
    06:00 +17°C° 0 mm 2 m/s 740 mmHg 91%
    07:00 +18°C° 0 mm 2 m/s 740 mmHg 88%
    08:00 +20°C° 0 mm 2 m/s 740 mmHg 84%
    09:00 +21°C° 1.4 mm 2 m/s 740 mmHg 80%
    10:00 +23°C° 1.4 mm 2 m/s 740 mmHg 76%
    11:00 +24°C° 1.4 mm 2 m/s 740 mmHg 73%
    12:00 +24°C° 1.2 mm 2 m/s 740 mmHg 72%
    13:00 +24°C° 1.2 mm 2 m/s 740 mmHg 72%
    14:00 +24°C° 1.2 mm 2 m/s 740 mmHg 71%
    15:00 +24°C° 0.7 mm 2 m/s 740 mmHg 74%
    16:00 +23°C° 0.7 mm 2 m/s 740 mmHg 77%
    17:00 +23°C° 0.7 mm 2 m/s 740 mmHg 80%
    18:00 +21°C° 0.5 mm 3 m/s 740 mmHg 85%
    19:00 +19°C° 0.5 mm 4 m/s 740 mmHg 89%
    20:00 +17°C° 0.5 mm 5 m/s 740 mmHg 94%
    21:00 +17°C° 0.1 mm 4 m/s 740 mmHg 95%
    22:00 +17°C° 0.1 mm 4 m/s 739 mmHg 95%
    23:00 +16°C° 0.1 mm 3 m/s 739 mmHg 96%

    27 Juillet, Samedi

    Heure Température Précipitation Vent Pression Humidité
    00:00 +16°C° 0 mm 3 m/s 739 mmHg 97%
    01:00 +14°C° 0 mm 3 m/s 739 mmHg 97%
    02:00 +15°C° 0 mm 2 m/s 739 mmHg 97%
    03:00 +15°C° 0 mm 2 m/s 739 mmHg 98%
    04:00 +15°C° 0 mm 2 m/s 738 mmHg 98%
    05:00 +15°C° 0 mm 2 m/s 738 mmHg 98%
    06:00 +17°C° 0 mm 2 m/s 738 mmHg 95%
    07:00 +18°C° 0 mm 2 m/s 738 mmHg 92%
    08:00 +19°C° 0 mm 2 m/s 739 mmHg 88%
    09:00 +20°C° 0 mm 2 m/s 739 mmHg 84%
    10:00 +21°C° 0 mm 3 m/s 739 mmHg 80%
    11:00 +22°C° 0 mm 3 m/s 739 mmHg 75%
    12:00 +22°C° 0 mm 3 m/s 739 mmHg 74%
    13:00 +24°C° 0 mm 2 m/s 739 mmHg 73%
    14:00 +24°C° 0 mm 2 m/s 739 mmHg 72%
    15:00 +24°C° 0 mm 2 m/s 738 mmHg 73%
    16:00 +24°C° 0 mm 2 m/s 738 mmHg 73%
    17:00 +24°C° 0 mm 2 m/s 738 mmHg 74%
    18:00 +23°C° 0.6 mm 2 m/s 738 mmHg 80%
    19:00 +20°C° 0.6 mm 3 m/s 738 mmHg 86%
    20:00 +19°C° 0.6 mm 3 m/s 738 mmHg 92%
    21:00 +18°C° 0 mm 3 m/s 738 mmHg 93%
    22:00 +18°C° 0 mm 2 m/s 738 mmHg 93%
    23:00 +17°C° 0 mm 2 m/s 738 mmHg 94%

    28 Juillet, Dimanche

    Heure Température Précipitation Vent Pression Humidité
    00:00 +17°C° 0 mm 2 m/s 737 mmHg 95%
    01:00 +17°C° 0 mm 2 m/s 737 mmHg 95%
    02:00 +16°C° 0 mm 2 m/s 737 mmHg 96%
    03:00 +16°C° 0 mm 2 m/s 737 mmHg 97%
    04:00 +16°C° 0 mm 2 m/s 737 mmHg 97%
    05:00 +16°C° 0 mm 2 m/s 737 mmHg 98%
    06:00 +18°C° 0 mm 2 m/s 737 mmHg 94%
    07:00 +19°C° 0 mm 2 m/s 737 mmHg 91%
    08:00 +20°C° 0 mm 3 m/s 737 mmHg 88%
    09:00 +21°C° 0 mm 2 m/s 737 mmHg 82%
    10:00 +24°C° 0 mm 2 m/s 737 mmHg 76%
    11:00 +25°C° 0 mm 2 m/s 737 mmHg 71%
    12:00 +25°C° 0.1 mm 2 m/s 737 mmHg 68%
    13:00 +26°C° 0.1 mm 3 m/s 736 mmHg 66%
    14:00 +27°C° 0.1 mm 3 m/s 736 mmHg 64%
    15:00 +26°C° 0.9 mm 4 m/s 736 mmHg 70%
    16:00 +25°C° 0.9 mm 4 m/s 736 mmHg 77%
    17:00 +23°C° 0.9 mm 5 m/s 736 mmHg 83%
    18:00 +21°C° 0.3 mm 5 m/s 736 mmHg 85%
    19:00 +19°C° 0.3 mm 5 m/s 737 mmHg 88%
    20:00 +16°C° 0.3 mm 5 m/s 737 mmHg 90%
    21:00 +15°C° 0 mm 5 m/s 737 mmHg 90%
    22:00 +14°C° 0 mm 5 m/s 738 mmHg 89%
    23:00 +13°C° 0 mm 5 m/s 738 mmHg 89%
    Voir plus